STARLINK-5309, 55310

Orbit data source: Space-Track

STARLINK-5309, 55310 is a payload satellite owned by SpaceX/Seattle (US) in LEO that was launched on Thu, 19 Jan 2023 UTC via an FALCON 9 launch vehicle from the Air Force Western Test Range (AFWTR). Payload-class satellites include a variety of spacecraft equipped with specific instruments for various scientific and technological missions. These include communications satellites like Starlink; space stations such as the ISS; scientific satellites like the Hubble; Earth observation satellites from companies like Planet Labs, Umbra, and HawkEye 360; GPS; miniature CubeSats for education and research; and military/defense satellites.

Loading next visibility...
Identifier
55310, 2023-010AT
Orbit
LEO
Country
Flag of USUS
Related business
Manufacturer
SpaceX/Seattle
Mission
Operational Commercial Communications
Bus & Motor
STARLINK, Unknown motor
Mass
305 kg wet, ~290 kg dry
Launch date (UTC)
2023-01-19 (3 years ago)
Launch vehicle
FALCON 9
Launch site
Air Force Western Test Range (AFWTR)
Object type
Payload
Rocket body
Debris
Shape & HBR
Box + 1 Pan, 10.1 m
Radar Cross Section
13.562 m², Large (>1 m²)

Expand to show TLE details & history
Last TLE update: 2 days ago

TLE from 2 days ago
0 STARLINK-5309
1 55310U 23010AT  26171.25600072  .00000221  00000-0  26299-4 0  9996
2 55310  69.9998 105.9328 0003121 280.6184  79.4623 14.98332987189137
Epoch: 2026-06-20T06:08Z
TLE epoch observation values (Epoch: 2026-06-20T06:08:38.462Z)
Latitude
-0.00005°
Longitude
105.29929°
Altitude
574.074 km
Speed
7.574 km/s
True Right ascension
07h 03m 43s
True Declination
0° 00' 00"
Sunlit
Object was in daylight at epoch
Visualization orbit readout
Latitude
Unknown
Longitude
Unknown
Altitude
Unknown
Speed
Unknown
Apparent Right ascension
Unknown
Apparent Declination
Unknown
Sunlit
N/A
Visualization observer readout
Local Sidereal Time
21:29:41
Azimuth
Unknown
Elevation
Unknown
Doppler factor
Unknown
Orbital elements
Apogee altitude
572.163 km
Perigee altitude
567.826 km
Semi-major axis
6,948.132 km
Eccentricity
0.00031
Inclination
69.9998°
RAAN
105.9328°
Arg. of periapsis
280.6184°
True anomaly
79.49746°
Mean anomaly
79.4623°
Eccentric anomaly
79.47988°
Mean motion
3.7475 °/min
Orbital period
96.06 mins
BSTAR
0.000026299
Loading maneuver chart data...
Computing Atmospheric mass density...
Loading historical data...
Loading historical data...
Loading historical data...
Loading historical data...
Loading historical data...
Loading historical data...
Loading historical data...

Documentation

Showing up to 5 results
|